Location: *
(45.5667°S, 177.5167°W)
Time: 16:44:09
(UTC+00:00)

RESURS DK-1 - Pass Details

Date: 29 May 2022
Orbit: 555 x 559 km, 69.9° (Epoch: 28 June)

Event Time Altitude Azimuth Distance (km) Brightness Sun altitude
Rises 05:45:35 0° 209° (SSW) 2,787 6.1 -14.9°
Reaches altitude 10° 05:47:48 10° 209° (SSW) 1,882 5.2 -15.3°
Maximum altitude 05:52:01 82° 296° (WNW) 579 2.4 -16.0°
Drops below altitude 10° 05:56:10 10° 23° (NNE) 1,853 4.9 -16.7°
Sets 05:58:21 0° 24° (NNE) 2,740 5.8 -17.1°
